DAL1065 KATL-KPBI

Flight info

Callsign DAL1065
Flight time 1h 22m
Altitude 33000
Route SMLTZ3 WALET DCT ZPLEN VUUDU1
Aircraft A320/M-V/N

Departure

Time 2026-05-03 23:39
Airport Hartsfield Jackson Atlanta International Airport (KATL)

Arrival

Time 2026-05-04 01:01
Airport Palm Beach International Airport (KPBI)
Time Latitude Longitude Altitude Speed Heading
2026-05-03 23:18 33.63861 -84.42987 1006 ft 0 kts 90°
2026-05-03 23:26 33.63861 -84.42991 1006 ft 1 kts 90°
2026-05-03 23:26 33.63861 -84.42999 1006 ft 1 kts 90°
2026-05-03 23:26 33.63861 -84.43009 1006 ft 1 kts 93°
2026-05-03 23:27 33.63862 -84.43019 1006 ft 1 kts 98°
2026-05-03 23:27 33.63864 -84.43031 1006 ft 2 kts 105°
2026-05-03 23:27 33.63867 -84.43043 1006 ft 2 kts 112°
2026-05-03 23:27 33.63871 -84.43055 1006 ft 2 kts 119°
2026-05-03 23:28 33.63876 -84.43066 1006 ft 2 kts 126°
2026-05-03 23:28 33.63878 -84.43068 1006 ft 0 kts 127°
2026-05-03 23:28 33.63877 -84.43067 1006 ft 0 kts 127°
2026-05-03 23:28 33.63876 -84.43065 1006 ft 1 kts 125°
2026-05-03 23:29 33.63875 -84.43064 1006 ft 0 kts 125°
2026-05-03 23:31 33.63869 -84.43055 1006 ft 3 kts 131°
2026-05-03 23:31 33.63848 -84.43053 1006 ft 4 kts 185°
2026-05-03 23:32 33.63808 -84.43062 1006 ft 7 kts 188°
2026-05-03 23:32 33.63751 -84.43064 1006 ft 10 kts 182°
2026-05-03 23:32 33.63681 -84.43042 1006 ft 12 kts 137°
2026-05-03 23:32 33.63663 -84.42939 1006 ft 14 kts 88°
2026-05-03 23:33 33.63662 -84.42808 1006 ft 17 kts 91°
2026-05-03 23:33 33.63654 -84.42659 1006 ft 19 kts 91°
2026-05-03 23:33 33.63655 -84.42490 1006 ft 21 kts 90°
2026-05-03 23:33 33.63655 -84.42305 1006 ft 23 kts 91°
2026-05-03 23:34 33.63653 -84.42106 1006 ft 25 kts 86°
2026-05-03 23:34 33.63656 -84.41904 1006 ft 25 kts 90°
2026-05-03 23:34 33.63655 -84.41693 1006 ft 26 kts 90°
2026-05-03 23:34 33.63653 -84.41471 1005 ft 27 kts 91°
2026-05-03 23:35 33.63651 -84.41253 1006 ft 22 kts 89°
2026-05-03 23:35 33.63653 -84.41082 1006 ft 14 kts 89°
2026-05-03 23:35 33.63653 -84.40957 1006 ft 15 kts 97°
2026-05-03 23:35 33.63596 -84.40909 1006 ft 8 kts 178°
2026-05-03 23:36 33.63589 -84.40909 1006 ft 0 kts 178°
2026-05-03 23:37 33.63584 -84.40909 1006 ft 2 kts 179°
2026-05-03 23:37 33.63557 -84.40909 1006 ft 5 kts 181°
2026-05-03 23:37 33.63510 -84.40912 1007 ft 8 kts 184°
2026-05-03 23:37 33.63473 -84.40953 1007 ft 8 kts 258°
2026-05-03 23:38 33.63473 -84.41011 1006 ft 7 kts 270°
2026-05-03 23:38 33.63472 -84.41106 1005 ft 29 kts 268°
2026-05-03 23:38 33.63470 -84.41711 1005 ft 111 kts 270°
2026-05-03 23:38 33.63471 -84.42872 1189 ft 156 kts 271°
2026-05-03 23:39 33.63502 -84.44278 1668 ft 187 kts 274°
2026-05-03 23:39 33.63556 -84.45896 2284 ft 206 kts 275°
2026-05-03 23:39 33.63591 -84.47628 3148 ft 210 kts 273°
2026-05-03 23:39 33.63586 -84.49464 3793 ft 230 kts 271°
2026-05-03 23:40 33.63567 -84.51448 4338 ft 250 kts 271°
2026-05-03 23:40 33.63549 -84.53580 5147 ft 259 kts 271°
2026-05-03 23:40 33.63536 -84.55787 6001 ft 266 kts 271°
2026-05-03 23:40 33.63526 -84.58022 6953 ft 269 kts 272°
2026-05-03 23:41 33.63518 -84.60264 7869 ft 272 kts 272°
2026-05-03 23:41 33.63511 -84.62557 8806 ft 275 kts 271°
2026-05-03 23:41 33.63155 -84.64828 9727 ft 282 kts 249°
2026-05-03 23:41 33.62020 -84.66746 10568 ft 291 kts 224°
2026-05-03 23:42 33.60304 -84.68118 11391 ft 297 kts 213°
2026-05-03 23:42 33.58424 -84.69197 12239 ft 303 kts 199°
2026-05-03 23:42 33.56330 -84.69530 13072 ft 310 kts 180°
2026-05-03 23:42 33.54169 -84.69161 13907 ft 315 kts 173°
2026-05-03 23:43 33.51987 -84.68717 14637 ft 319 kts 173°
2026-05-03 23:43 33.49810 -84.68288 15356 ft 322 kts 174°
2026-05-03 23:43 33.47580 -84.67859 16077 ft 325 kts 174°
2026-05-03 23:43 33.45331 -84.67432 16780 ft 328 kts 174°
2026-05-03 23:44 33.43107 -84.66856 17463 ft 335 kts 163°
2026-05-03 23:44 33.41028 -84.65553 18153 ft 343 kts 145°
2026-05-03 23:44 33.39239 -84.63583 18713 ft 352 kts 137°
2026-05-03 23:44 33.37473 -84.61473 18892 ft 370 kts 137°
2026-05-03 23:45 33.35599 -84.59242 19051 ft 388 kts 137°
2026-05-03 23:45 33.33625 -84.56903 19299 ft 402 kts 137°
2026-05-03 23:45 33.31642 -84.54558 19868 ft 405 kts 137°
2026-05-03 23:45 33.29621 -84.52171 20464 ft 409 kts 137°
2026-05-03 23:46 33.27588 -84.49774 21042 ft 412 kts 137°
2026-05-03 23:46 33.25549 -84.47372 21619 ft 416 kts 137°
2026-05-03 23:46 33.23475 -84.44932 22179 ft 419 kts 137°
2026-05-03 23:46 33.21409 -84.42503 22744 ft 422 kts 137°
2026-05-03 23:47 33.19286 -84.40008 23309 ft 426 kts 137°
2026-05-03 23:47 33.17175 -84.37530 23836 ft 429 kts 137°
2026-05-03 23:47 33.15053 -84.35040 24317 ft 432 kts 137°
2026-05-03 23:47 33.12906 -84.32522 24786 ft 435 kts 137°
2026-05-03 23:48 33.12668 -84.32242 24827 ft 435 kts 137°
2026-05-03 23:48 33.10531 -84.29740 25276 ft 438 kts 137°
2026-05-03 23:48 33.08369 -84.27206 25716 ft 441 kts 138°
2026-05-03 23:48 33.06166 -84.24627 26151 ft 444 kts 138°
2026-05-03 23:49 33.03949 -84.22036 26597 ft 446 kts 138°
2026-05-03 23:49 33.01689 -84.19528 27004 ft 446 kts 144°
2026-05-03 23:49 32.99143 -84.17414 27431 ft 444 kts 154°
2026-05-03 23:49 32.96362 -84.15804 27831 ft 442 kts 163°
2026-05-03 23:50 32.93470 -84.14604 28232 ft 442 kts 165°
2026-05-03 23:50 32.91523 -84.13811 28497 ft 444 kts 165°
2026-05-03 23:50 32.87628 -84.12213 29017 ft 447 kts 165°
2026-05-03 23:50 32.84714 -84.11014 29364 ft 449 kts 165°
2026-05-03 23:51 32.81730 -84.09786 29719 ft 451 kts 165°
2026-05-03 23:51 32.78788 -84.08577 30070 ft 453 kts 165°
2026-05-03 23:51 32.75789 -84.07345 30389 ft 455 kts 165°
2026-05-03 23:51 32.72794 -84.06112 30771 ft 454 kts 166°
2026-05-03 23:52 32.69845 -84.04898 31151 ft 454 kts 167°
2026-05-03 23:52 32.66844 -84.03667 31484 ft 455 kts 167°
2026-05-03 23:52 32.63848 -84.02439 31889 ft 454 kts 167°
2026-05-03 23:52 32.60860 -84.01215 32312 ft 452 kts 167°
2026-05-03 23:53 32.57931 -84.00016 32741 ft 450 kts 168°
2026-05-03 23:53 32.54968 -83.98804 33057 ft 448 kts 168°
2026-05-03 23:53 32.49064 -83.96394 33115 ft 446 kts 168°
2026-05-03 23:54 32.43205 -83.94006 33112 ft 445 kts 168°
2026-05-03 23:54 32.37359 -83.91627 33111 ft 445 kts 168°
2026-05-03 23:55 32.31523 -83.89410 33104 ft 439 kts 171°
2026-05-03 23:55 32.25637 -83.87354 33108 ft 440 kts 171°
2026-05-03 23:56 32.19782 -83.85280 33072 ft 440 kts 171°
2026-05-03 23:56 32.13924 -83.83183 33113 ft 440 kts 171°
2026-05-03 23:57 32.08040 -83.81081 33111 ft 440 kts 171°
2026-05-03 23:57 32.02206 -83.78999 33111 ft 440 kts 171°
2026-05-03 23:58 31.96330 -83.76904 33116 ft 440 kts 171°
2026-05-03 23:58 31.90500 -83.74830 33108 ft 440 kts 172°
2026-05-03 23:59 31.84607 -83.72735 33111 ft 440 kts 172°
2026-05-03 23:59 31.78776 -83.70666 33115 ft 440 kts 172°
2026-05-04 00:00 31.72895 -83.68582 33122 ft 440 kts 172°
2026-05-04 00:00 31.67028 -83.66485 33121 ft 442 kts 171°
2026-05-04 00:01 31.61192 -83.64210 33108 ft 443 kts 170°
2026-05-04 00:01 31.55330 -83.61912 33112 ft 442 kts 171°
2026-05-04 00:02 31.49515 -83.59656 33114 ft 443 kts 171°
2026-05-04 00:02 31.43644 -83.57388 33124 ft 443 kts 171°
2026-05-04 00:03 31.37776 -83.55126 33127 ft 443 kts 171°
2026-05-04 00:03 31.31942 -83.52877 33113 ft 442 kts 171°
2026-05-04 00:04 31.26119 -83.50639 33122 ft 442 kts 171°
2026-05-04 00:04 31.20251 -83.48387 33122 ft 443 kts 171°
2026-05-04 00:05 31.14413 -83.46148 33122 ft 443 kts 171°
2026-05-04 00:05 31.08540 -83.43898 33120 ft 443 kts 171°
2026-05-04 00:06 31.02693 -83.41659 33091 ft 443 kts 172°
2026-05-04 00:06 30.96827 -83.39418 33093 ft 443 kts 171°
2026-05-04 00:07 30.90966 -83.37182 33112 ft 444 kts 171°
2026-05-04 00:07 30.85118 -83.34953 33113 ft 444 kts 172°
2026-05-04 00:08 30.79256 -83.32722 33109 ft 444 kts 172°
2026-05-04 00:08 30.73373 -83.30486 33098 ft 445 kts 172°
2026-05-04 00:09 30.68456 -83.28620 33103 ft 445 kts 172°
2026-05-04 00:09 30.62581 -83.26393 33114 ft 446 kts 172°
2026-05-04 00:10 30.56669 -83.24154 33123 ft 446 kts 172°
2026-05-04 00:10 30.50751 -83.21915 33129 ft 447 kts 172°
2026-05-04 00:11 30.44854 -83.19687 33132 ft 447 kts 172°
2026-05-04 00:11 30.38924 -83.17449 33132 ft 447 kts 172°
2026-05-04 00:12 30.33039 -83.15231 33106 ft 447 kts 172°
2026-05-04 00:12 30.27106 -83.12998 33118 ft 447 kts 172°
2026-05-04 00:13 30.21199 -83.10779 33070 ft 447 kts 172°
2026-05-04 00:13 30.15285 -83.08558 33103 ft 446 kts 172°
2026-05-04 00:14 30.09391 -83.06350 33097 ft 446 kts 172°
2026-05-04 00:14 30.03484 -83.04139 33099 ft 446 kts 172°
2026-05-04 00:15 29.97589 -83.01934 33097 ft 447 kts 172°
2026-05-04 00:15 29.91680 -82.99726 33051 ft 446 kts 173°
2026-05-04 00:16 29.85798 -82.97530 33072 ft 446 kts 173°
2026-05-04 00:16 29.79862 -82.95319 33074 ft 447 kts 173°
2026-05-04 00:17 29.73946 -82.93118 33078 ft 448 kts 173°
2026-05-04 00:17 29.68011 -82.90912 33084 ft 449 kts 173°
2026-05-04 00:18 29.62104 -82.88718 33076 ft 449 kts 173°
2026-05-04 00:18 29.56146 -82.86507 33088 ft 449 kts 173°
2026-05-04 00:19 29.50217 -82.84312 33093 ft 449 kts 173°
2026-05-04 00:19 29.44232 -82.82099 33093 ft 449 kts 173°
2026-05-04 00:20 29.38295 -82.79905 33083 ft 449 kts 173°
2026-05-04 00:20 29.32344 -82.77708 33038 ft 446 kts 173°
2026-05-04 00:21 29.26502 -82.75549 33081 ft 443 kts 173°
2026-05-04 00:21 29.20624 -82.73390 33077 ft 443 kts 173°
2026-05-04 00:22 29.14753 -82.71234 33076 ft 443 kts 173°
2026-05-04 00:22 29.08898 -82.69084 33079 ft 443 kts 173°
2026-05-04 00:23 29.03029 -82.66931 33076 ft 442 kts 174°
2026-05-04 00:23 28.97148 -82.64776 33079 ft 442 kts 174°
2026-05-04 00:24 28.91293 -82.62636 33080 ft 442 kts 174°
2026-05-04 00:24 28.85457 -82.60502 33079 ft 442 kts 174°
2026-05-04 00:25 28.79595 -82.58362 33064 ft 441 kts 174°
2026-05-04 00:25 28.73761 -82.56234 33044 ft 441 kts 174°
2026-05-04 00:26 28.67929 -82.54109 33054 ft 441 kts 174°
2026-05-04 00:26 28.62098 -82.51989 33052 ft 441 kts 174°
2026-05-04 00:27 28.56259 -82.49869 33068 ft 441 kts 174°
2026-05-04 00:27 28.50378 -82.47735 33062 ft 441 kts 174°
2026-05-04 00:28 28.44540 -82.45619 33014 ft 441 kts 174°
2026-05-04 00:28 28.38705 -82.43506 33052 ft 441 kts 174°
2026-05-04 00:29 28.32873 -82.41398 33055 ft 442 kts 174°
2026-05-04 00:29 28.27021 -82.39285 33057 ft 442 kts 174°
2026-05-04 00:30 28.21175 -82.37176 33079 ft 442 kts 174°
2026-05-04 00:30 28.15369 -82.35083 33036 ft 443 kts 174°
2026-05-04 00:31 28.09536 -82.32982 33053 ft 443 kts 174°
2026-05-04 00:31 28.03635 -82.30860 33060 ft 443 kts 174°
2026-05-04 00:32 27.97789 -82.28834 32681 ft 438 kts 175°
2026-05-04 00:32 27.94859 -82.27857 31963 ft 440 kts 175°
2026-05-04 00:32 27.91947 -82.26886 31305 ft 440 kts 174°
2026-05-04 00:33 27.89010 -82.25900 30704 ft 438 kts 174°
2026-05-04 00:33 27.83184 -82.23936 29391 ft 432 kts 174°
2026-05-04 00:33 27.80350 -82.22976 28828 ft 427 kts 174°
2026-05-04 00:34 27.77500 -82.22013 28231 ft 423 kts 173°
2026-05-04 00:34 27.74685 -82.21063 27650 ft 419 kts 173°
2026-05-04 00:34 27.71930 -82.20134 27091 ft 415 kts 173°
2026-05-04 00:34 27.69163 -82.19202 26539 ft 411 kts 173°
2026-05-04 00:35 27.66462 -82.18292 26189 ft 404 kts 173°
2026-05-04 00:35 27.63792 -82.17393 26070 ft 405 kts 173°
2026-05-04 00:35 27.61066 -82.16483 26052 ft 409 kts 173°
2026-05-04 00:35 27.58316 -82.15574 26052 ft 408 kts 173°
2026-05-04 00:36 27.55610 -82.14685 26055 ft 408 kts 173°
2026-05-04 00:36 27.52879 -82.13790 26051 ft 408 kts 173°
2026-05-04 00:36 27.50187 -82.12906 26056 ft 408 kts 173°
2026-05-04 00:36 27.47457 -82.12010 26051 ft 408 kts 173°
2026-05-04 00:37 27.44720 -82.11111 26055 ft 408 kts 173°
2026-05-04 00:37 27.42027 -82.10226 26058 ft 408 kts 173°
2026-05-04 00:37 27.39292 -82.09328 26056 ft 408 kts 173°
2026-05-04 00:37 27.36583 -82.08439 26061 ft 408 kts 173°
2026-05-04 00:38 27.33858 -82.07544 26053 ft 407 kts 173°
2026-05-04 00:38 27.31136 -82.06637 25874 ft 405 kts 173°
2026-05-04 00:38 27.28436 -82.05729 25467 ft 403 kts 173°
2026-05-04 00:38 27.25784 -82.04837 24982 ft 400 kts 173°
2026-05-04 00:39 27.23116 -82.03941 24473 ft 395 kts 173°
2026-05-04 00:39 27.20515 -82.03067 24146 ft 388 kts 173°
2026-05-04 00:39 27.17915 -82.02199 24035 ft 390 kts 173°
2026-05-04 00:39 27.15317 -82.01337 24018 ft 393 kts 173°
2026-05-04 00:40 27.12685 -82.00461 24019 ft 393 kts 172°
2026-05-04 00:40 27.10051 -81.99582 24020 ft 392 kts 172°
2026-05-04 00:40 27.07463 -81.98718 24022 ft 393 kts 172°
2026-05-04 00:40 27.04892 -81.97541 23964 ft 404 kts 160°
2026-05-04 00:41 27.02551 -81.95737 23668 ft 416 kts 147°
2026-05-04 00:41 27.00567 -81.93359 23172 ft 424 kts 137°
2026-05-04 00:41 26.98701 -81.90788 22590 ft 421 kts 137°
2026-05-04 00:41 26.96851 -81.88247 22166 ft 415 kts 137°
2026-05-04 00:42 26.95021 -81.85747 22041 ft 416 kts 137°
2026-05-04 00:42 26.93179 -81.83251 21997 ft 419 kts 137°
2026-05-04 00:42 26.91318 -81.80731 22020 ft 419 kts 137°
2026-05-04 00:42 26.89472 -81.78235 22017 ft 419 kts 137°
2026-05-04 00:43 26.87601 -81.75705 22015 ft 419 kts 137°
2026-05-04 00:43 26.85760 -81.73221 22008 ft 418 kts 138°
2026-05-04 00:43 26.83878 -81.70731 21855 ft 415 kts 138°
2026-05-04 00:43 26.81996 -81.68270 21458 ft 414 kts 138°
2026-05-04 00:44 26.80145 -81.65854 20974 ft 411 kts 138°
2026-05-04 00:44 26.78284 -81.63421 20448 ft 407 kts 138°
2026-05-04 00:44 26.76445 -81.61013 19929 ft 405 kts 138°
2026-05-04 00:44 26.74622 -81.58627 19419 ft 402 kts 138°
2026-05-04 00:45 26.72815 -81.56259 19109 ft 396 kts 138°
2026-05-04 00:45 26.71032 -81.53927 19005 ft 399 kts 138°
2026-05-04 00:45 26.69285 -81.51486 18976 ft 406 kts 128°
2026-05-04 00:45 26.68110 -81.48572 18927 ft 413 kts 110°
2026-05-04 00:46 26.67750 -81.45419 18843 ft 411 kts 90°
2026-05-04 00:46 26.68220 -81.42330 18673 ft 403 kts 74°
2026-05-04 00:46 26.69121 -81.39377 18290 ft 400 kts 70°
2026-05-04 00:46 26.70060 -81.36451 17849 ft 397 kts 71°
2026-05-04 00:47 26.70914 -81.33519 17427 ft 393 kts 73°
2026-05-04 00:47 26.71681 -81.30601 17016 ft 389 kts 75°
2026-05-04 00:47 26.72390 -81.27711 16600 ft 386 kts 76°
2026-05-04 00:47 26.73074 -81.24818 16179 ft 382 kts 76°
2026-05-04 00:48 26.73740 -81.21957 15943 ft 374 kts 76°
2026-05-04 00:48 26.74377 -81.19212 15701 ft 366 kts 76°
2026-05-04 00:48 26.75016 -81.16459 15329 ft 363 kts 76°
2026-05-04 00:48 26.75647 -81.13739 14959 ft 360 kts 76°
2026-05-04 00:49 26.76270 -81.11057 14604 ft 357 kts 76°
2026-05-04 00:49 26.76893 -81.08375 14238 ft 354 kts 76°
2026-05-04 00:49 26.77511 -81.05712 13891 ft 351 kts 75°
2026-05-04 00:49 26.78116 -81.03100 13498 ft 348 kts 75°
2026-05-04 00:50 26.78645 -81.00446 13110 ft 345 kts 83°
2026-05-04 00:50 26.78803 -80.97788 12724 ft 340 kts 89°
2026-05-04 00:50 26.78907 -80.95180 12379 ft 337 kts 88°
2026-05-04 00:50 26.79020 -80.92555 12013 ft 334 kts 88°
2026-05-04 00:51 26.79133 -80.89993 11651 ft 331 kts 88°
2026-05-04 00:51 26.79246 -80.87414 11291 ft 328 kts 88°
2026-05-04 00:51 26.79355 -80.84907 10936 ft 324 kts 88°
2026-05-04 00:51 26.79465 -80.82382 10582 ft 322 kts 88°
2026-05-04 00:52 26.79572 -80.79878 10234 ft 319 kts 88°
2026-05-04 00:52 26.79641 -80.77442 9890 ft 315 kts 94°
2026-05-04 00:52 26.79303 -80.75028 9499 ft 311 kts 108°
2026-05-04 00:52 26.78566 -80.72769 9144 ft 306 kts 113°
2026-05-04 00:53 26.77821 -80.70566 9014 ft 305 kts 112°
2026-05-04 00:53 26.77073 -80.68326 8988 ft 307 kts 112°
2026-05-04 00:53 26.76345 -80.66126 8986 ft 293 kts 112°
2026-05-04 00:53 26.75663 -80.64061 8915 ft 282 kts 112°
2026-05-04 00:54 26.74977 -80.61992 8561 ft 281 kts 112°
2026-05-04 00:54 26.74312 -80.59992 8396 ft 271 kts 112°
2026-05-04 00:54 26.73666 -80.58048 8294 ft 260 kts 113°
2026-05-04 00:54 26.73023 -80.56177 8001 ft 257 kts 113°
2026-05-04 00:55 26.72356 -80.54288 7537 ft 263 kts 114°
2026-05-04 00:55 26.71678 -80.52377 7067 ft 269 kts 113°
2026-05-04 00:55 26.70981 -80.50400 6559 ft 276 kts 112°
2026-05-04 00:55 26.70304 -80.48388 6017 ft 282 kts 107°
2026-05-04 00:56 26.69940 -80.46194 5406 ft 289 kts 95°
2026-05-04 00:56 26.69784 -80.43945 4866 ft 294 kts 94°
2026-05-04 00:56 26.69659 -80.41635 4263 ft 299 kts 92°
2026-05-04 00:56 26.69590 -80.40085 3901 ft 300 kts 92°
2026-05-04 00:57 26.69487 -80.37737 3301 ft 303 kts 92°
2026-05-04 00:57 26.69350 -80.34579 2396 ft 308 kts 91°
2026-05-04 00:57 26.69281 -80.32996 2167 ft 303 kts 92°
2026-05-04 00:57 26.69180 -80.30686 2023 ft 288 kts 91°
2026-05-04 00:58 26.69088 -80.28538 1991 ft 270 kts 91°
2026-05-04 00:58 26.69001 -80.26530 1992 ft 244 kts 91°
2026-05-04 00:58 26.68923 -80.24741 1993 ft 221 kts 91°
2026-05-04 00:58 26.68851 -80.23093 1992 ft 204 kts 91°
2026-05-04 00:59 26.68783 -80.21480 1960 ft 203 kts 92°
2026-05-04 00:59 26.68717 -80.19999 1733 ft 179 kts 90°
2026-05-04 00:59 26.68662 -80.18726 1487 ft 154 kts 90°
2026-05-04 00:59 26.68613 -80.17582 1279 ft 145 kts 90°
2026-05-04 01:00 26.68565 -80.16465 1083 ft 145 kts 90°
2026-05-04 01:00 26.68516 -80.15367 909 ft 141 kts 90°
2026-05-04 01:00 26.68469 -80.14251 716 ft 143 kts 90°
2026-05-04 01:00 26.68420 -80.13126 529 ft 150 kts 90°
2026-05-04 01:01 26.68373 -80.11994 379 ft 145 kts 90°
2026-05-04 01:01 26.68318 -80.10875 95 ft 138 kts 88°
2026-05-04 01:01 26.68282 -80.09892 32 ft 105 kts 92°
2026-05-04 01:01 26.68254 -80.09305 26 ft 48 kts 94°
2026-05-04 01:02 26.68235 -80.09023 29 ft 34 kts 96°
2026-05-04 01:02 26.68244 -80.08870 26 ft 9 kts 54°
2026-05-04 01:02 26.68316 -80.08843 26 ft 7 kts 348°
2026-05-04 01:02 26.68347 -80.08889 25 ft 0 kts 275°
2026-05-04 01:03 26.68347 -80.08891 24 ft 2 kts 275°
2026-05-04 01:03 26.68350 -80.08927 23 ft 7 kts 274°
2026-05-04 01:03 26.68354 -80.08995 24 ft 11 kts 274°
2026-05-04 01:04 26.68356 -80.09070 25 ft 9 kts 270°
2026-05-04 01:04 26.68362 -80.09131 26 ft 7 kts 294°
2026-05-04 01:04 26.68405 -80.09150 29 ft 7 kts 14°
2026-05-04 01:04 26.68443 -80.09113 27 ft 8 kts 49°
2026-05-04 01:05 26.68492 -80.09084 27 ft 8 kts 13°
2026-05-04 01:05 26.68543 -80.09073 26 ft 7 kts 30°
2026-05-04 01:05 26.68557 -80.09028 27 ft 6 kts 91°
2026-05-04 01:05 26.68557 -80.09006 26 ft 0 kts 90°